map of DEL home
DEL - Airport
Location
City:  New Delhi, Delhi, India
Name:Indira Gandhi International Airport
Old (Alt.):Palam Airport
ICAO:VIDP
IATA:DEL

Details
Type:Airport (Aerodrome, Airfield)
Use:Public/Civil, International (customs port of entry)
Latitude:2834'07"N (28.568728)
Longitude:7706'44"E (77.112136)
Elevation:777 ft (237 m)
Variation:1.28E (WMM2015 magnetic declination)
0.06 annual change
Runways:3
Longest:14534 ft (4430 m), paved

Time
Time Zone:UTC+5:30
Local Time:

Weather
METAR:VIDP 181400Z 27006KT 3500 HZ NSC 15/07 Q1018 NOSIG
TAF:VIDP 181100Z 1812/1918 29006KT 2500 HZ NSC
BECMG 1818/1820 26003KT 1500 BR
BECMG 1900/1902 00000KT 0600 MIFG
BECMG 1904/1906 26005KT 1200 BR FU
BECMG 1908/1910 29008KT 3000 HZ SCT100

Related Locations
Nearby:
Farthest:IPC: 12034 mi / 19367 km
Easter Island (Isla de Pascua, Rapa Nui) [Mataveri Intl], VS, CL

Find:

   beyond  
but within

Other Information
Maps:
NOTAMs:
Links:
Sources:

  
  • flag of India
  

Sectional Chart

Flight Planning
at skyvector.com

Satellite Image

Google Maps Satellite view

 

Copyright © 2004-2018 Karl L. Swartz. All rights reserved.
The Great Circle Mapper name and logo are trademarks of the Great Circle Mapper.
All other trademarks mentioned herein belong to their respective owners.
Please see credits for attibutions and further copyright information.

  Follow gcmap on Facebook Follow gcmap on Twitter Follow gcmap on Google+ GCmap on LinkedIn

hCard Microformat

Geo Microformat